This is the latest recevied weather packets stored in our database for station/object KD7JB. If no packets are shown the sender has not sent any weather packets the latest 10 day(s).
| Time | Temp. | Humidity | Pressure | Rain* | Wind** | Luminosity | Snow |
|---|---|---|---|---|---|---|---|
| 1777227831 | 8.89° C | 27% | 1168.3 hPa | 0 mm | - | 682 W/m² | - |
| 1777227529 | 8.33° C | 27% | 1168.2 hPa | 0 mm | - | 675 W/m² | - |
| 1777227224 | 8.89° C | 26% | 1168 hPa | 0 mm | - | 672 W/m² | - |
| 1777226921 | 8.33° C | 27% | 1168 hPa | 0 mm | - | 667 W/m² | - |
| 1777226619 | 8.89° C | 25% | 1168.1 hPa | 0 mm | - | 653 W/m² | - |
| 1777226315 | 8.33° C | 28% | 1168.2 hPa | 0 mm | - | 639 W/m² | - |
| 1777226011 | 8.89° C | 28% | 1168 hPa | 0 mm | - | 631 W/m² | - |
| 1777225707 | 8.89° C | 26% | 1168 hPa | 0 mm | - | 522 W/m² | - |
| 1777225405 | 8.33° C | 25% | 1168.1 hPa | 0 mm | - | 643 W/m² | - |
| 1777225102 | 7.78° C | 27% | 1168 hPa | 0 mm | - | 651 W/m² | - |
| 1777224798 | 8.33° C | 28% | 1168 hPa | 0 mm | - | 652 W/m² | - |
| 1777224494 | 8.33° C | 27% | 1168 hPa | 0 mm | - | 494 W/m² | - |
| 1777224189 | 7.78° C | 28% | 1168 hPa | 0 mm | - | 665 W/m² | - |
| 1777223886 | 7.78° C | 27% | 1167.7 hPa | 0 mm | - | 556 W/m² | - |
| 1777223583 | 7.78° C | 26% | 1167.8 hPa | 0 mm | - | 455 W/m² | - |
| 1777223280 | 7.22° C | 28% | 1167.8 hPa | 0 mm | - | 563 W/m² | - |
| 1777222977 | 7.22° C | 29% | 1167.7 hPa | 0 mm | - | 444 W/m² | - |
| 1777222674 | 7.78° C | 28% | 1167.7 hPa | 0 mm | - | 419 W/m² | - |
| 1777222371 | 7.78° C | 31% | 1167.7 hPa | 0 mm | - | 331 W/m² | - |
| 1777222070 | 7.78° C | 29% | 1167.8 hPa | 0 mm | - | 482 W/m² | - |
| 1777221766 | 7.78° C | 29% | 1167.7 hPa | 0 mm | - | 403 W/m² | - |
| 1777221462 | 7.78° C | 26% | 1168 hPa | 0 mm | - | 510 W/m² | - |
| 1777221160 | 7.22° C | 29% | 1167.7 hPa | 0 mm | - | 499 W/m² | - |
| 1777220855 | 7.22° C | 28% | 1167.8 hPa | 0 mm | - | 434 W/m² | - |
| 1777220551 | 7.22° C | 29% | 1168 hPa | 0 mm | - | 460 W/m² | - |
* Rain latest hour (hover to see other rain measurements)
** Current wind speed in m/s (hover to see current wind gust speed)